Flag for U.S.A. Weather past 2 weeks in Neenah, Wisconsin, U.S.A.

Now
48 °F

Clear.


Feels Like: 45 °F
Forecast: 49 / 68 °F
Wind: 7 mph from Southeast

Location: Appleton / Outagamie

Current Time: Sep 19, 2014 at 1:38:42 AM

Latest Report: Sep 19, 2014 at 12:55 AM


Visibility: 10 mi

Pressure: 30.16 "Hg

Humidity: 94%

Dew point: 46 °F

Location of NeenahLocation

Historic Weather in Neenah — Graph

°F

Neenah temperature yesterday

Maximum temperature yesterday: 59 °F (at 4:45 PM)
Minimum temperature yesterday: 45 °F (at 4:55 AM)
Average temperature yesterday: 50 °F

Past Weeks' High & Low Weather Summary

 TemperatureHumidityPressure
High79 °F (Sep 4, 11:45 AM)100% (Sep 10, 5:45 AM)30.41 "Hg (Sep 10, 5:45 AM)
Low37 °F (Sep 12, 11:55 PM)36% (Sep 15, 4:45 PM)29.46 "Hg (Sep 10, 11:45 AM)
Average56 °F77%30.09 "Hg
* Reported Sep 4 12:15 AM — Sep 19 12:15 AM, Neenah, Weather by CustomWeather, © 2014

Note: Actual official high and low records may vary slightly from our data, if they occured in-between our weather recording intervals... More about our weather records

Advertising

Neenah weather history for previous 24 hours

 ConditionsComfort  
Time TempWeatherWind HumidityBarometerVisibility
12:15 AM
Sep 19
50 °FClear.3 mph88%30.16 "Hg10 mi
11:55 PM
Sep 18
50 °FClear.7 mph88%30.17 "Hg10 mi
11:35 PM48 °FClear.5 mph94%30.17 "Hg10 mi
11:15 PM50 °FClear.7 mph88%30.17 "Hg10 mi
10:45 PM50 °FPassing clouds.7 mph88%30.17 "Hg10 mi
9:45 PM52 °FPassing clouds.8 mph82%30.16 "Hg10 mi
8:45 PM52 °FPassing clouds.7 mph82%30.16 "Hg10 mi
7:45 PM55 °FPartly sunny.5 mph72%30.14 "Hg10 mi
5:45 PM59 °FPartly sunny.3 mph63%30.14 "Hg10 mi
4:45 PM59 °FBroken clouds.3 mph63%30.15 "Hg10 mi
3:45 PM57 °FScattered clouds.No wind67%30.16 "Hg10 mi
2:45 PM55 °FPartly sunny.5 mph67%30.18 "Hg10 mi
1:45 PM55 °FPartly sunny.5 mph67%30.20 "Hg10 mi
12:45 PM52 °FOvercast.5 mph72%30.22 "Hg10 mi
11:45 AM52 °FPartly sunny.6 mph67%30.22 "Hg10 mi
10:45 AM48 °FOvercast.6 mph71%30.22 "Hg10 mi
8:45 AM45 °FOvercast.7 mph76%30.19 "Hg10 mi
7:45 AM45 °FOvercast.10 mph76%30.18 "Hg10 mi
6:45 AM45 °FOvercast.10 mph81%30.17 "Hg10 mi
5:45 AM45 °FOvercast.10 mph81%30.15 "Hg10 mi
5:15 AM45 °FOvercast.10 mph81%30.14 "Hg10 mi
4:55 AM45 °FOvercast.9 mph87%30.14 "Hg10 mi
4:15 AM46 °FOvercast.10 mph82%30.14 "Hg10 mi
3:55 AM46 °FOvercast.9 mph82%30.13 "Hg10 mi
3:35 AM46 °FOvercast.12 mph87%30.12 "Hg10 mi
3:15 AM48 °FOvercast.9 mph82%30.11 "Hg10 mi
2:55 AM48 °FOvercast.8 mph82%30.11 "Hg10 mi
2:35 AM48 °FOvercast.9 mph82%30.11 "Hg10 mi
2:15 AM50 °FOvercast.10 mph76%30.11 "Hg10 mi
1:55 AM50 °FOvercast.12 mph76%30.11 "Hg10 mi
1:35 AM50 °FOvercast.8 mph82%30.10 "Hg10 mi
1:15 AM50 °FPassing clouds.8 mph82%30.09 "Hg10 mi
Weather by CustomWeather, © 2014

See weather overviewHow to use our weather pages